Terug naar catalogus

YAOGAN-40 01C

ActiefMilitairPO
NORAD 57833·PAYLOAD·🇨🇳 China

Gelanceerd Sep 10, 2023 vanaf Taiyuan Satellite Launch Center

Loading…

Volgende Passages (komende 24 uur)

TLE

VersSource: Space-Track

Epoch: Sep 14, 2026, 23:33 UTC

1 57833U 23139D   26257.98135478  .00000136  00000-0  63574-4 0  9990
2 57833  85.9922 218.9216 0002507 100.8636 259.2829 14.12461603155488

Volg YAOGAN-40 01C in realtime met AllMySat

Download on the App Store